BEIDOU-2 G7

Last updated on Sun Oct 06 2024 00:02:40 GMT+0000 (Coordinated Universal Time)

1 41586U 16037A 24279.57791696 -.00000342 00000+0 00000+0 0 9993 2 41586 1.6400 66.1936 0006618 351.5588 275.5104 1.00266424 676
UTC large
Height (km)
Speed (km/s)
/
Latitude / Longitude
Inclination (degrees)
Orbital Period (minutes)
Azimuth
Elevation
Range (km)
Doppler Factor

Next 0 passes for location: London (51.5072 / 0.1276)

Sorry there are no passes over London.